Salt Lake City, UT

10:36 AM MDT on July 25, 2016 (GMT -0600)
Salt Lake City International

Weather History for KSLC - March, 2013

Change the Weather History Date:

Wednesday, March 20, 2013

  Actual Average Record
Temperature  
Mean Temperature 51 °F 45 °F  
Max Temperature 57 °F 55 °F 74 °F (1997)
Min Temperature 44 °F 35 °F 17 °F (1965)
Degree Days  
Heating Degree Days 14 20  
Month to date heating degree days 407 454  
Since 1 July heating degree days 4639 4710  
Cooling Degree Days 0 0  
Month to date cooling degree days 0 0  
Year to date cooling degree days 0 0  
Growing Degree Days 2 (Base 50)    
Moisture  
Dew Point 28 °F    
Average Humidity 47    
Maximum Humidity 71    
Minimum Humidity 23    
Precipitation  
Precipitation 0.03 in 0.06 in 0.69 in (1946)
Month to date precipitation 0.39 1.09  
Year to date precipitation 2.59 3.59  
Snow  
Snow 0.00 in 0.20 in 4.40 in (1944)
Month to date snowfall 0.0 4.4  
Since 1 July snowfall 67.1 49.8  
Snow Depth 0.00 in    
Sea Level Pressure  
Sea Level Pressure 29.89 in    
Wind  
Wind Speed 11 mph (SE)    
Max Wind Speed 21 mph    
Max Gust Speed 25 mph    
Visibility 10 miles    
Events Rain    
T = Trace of Precipitation, MM = Missing Value Source: NWS Daily Summary

Daily Weather History Graph

Daily Weather History Graph

Search for Another Location

Airport or City:

Trip Planner

Search our weather history database for the weather conditions in past years. The results will help you decide how hot, cold, wet, or windy it might be!

Date:

Astronomy

Mar. 20, 2013 Rise Set
Actual Time 7:30 AM MDT 7:40 PM MDT
Civil Twilight 7:03 AM MDT 8:07 PM MDT
Nautical Twilight 6:31 AM MDT 8:39 PM MDT
Astronomical Twilight 5:58 AM MDT 9:12 PM MDT
Moon 1:16 PM MDT (3/20) 3:15 AM MDT (3/20)
Length of Visible Light 13h 04m
Length of Day
12h 09m
First Quarter, 60% of the Moon is Illuminated
Mar 20
First Quarter
Mar 27
Full
Apr 2
Last Quarter
Apr 10
New
Apr 18
First Quarter

Hourly Weather History & Observations

Time (MDT) Temp. Windchill Dew Point Humidity Pressure Visibility Wind Dir Wind Speed Gust Speed Precip Events Conditions
12:53 AM 46.0 °F 40.2 °F 10.0 °F 23% 30.06 in 10.0 mi SSE 12.7 mph - N/A   Partly Cloudy
1:53 AM 45.0 °F 38.9 °F 10.9 °F 25% 30.04 in 10.0 mi SSE 12.7 mph - N/A   Scattered Clouds
2:53 AM 46.9 °F - 10.9 °F 23% 30.01 in 10.0 mi SSE 13.8 mph - N/A   Mostly Cloudy
3:53 AM 46.0 °F 40.6 °F 12.9 °F 26% 29.98 in 10.0 mi SE 11.5 mph - N/A   Mostly Cloudy
4:53 AM 46.9 °F - 15.1 °F 28% 29.94 in 10.0 mi SSE 21.9 mph 25.3 mph N/A   Mostly Cloudy
5:53 AM 46.0 °F 40.2 °F 15.1 °F 29% 29.93 in 10.0 mi SE 12.7 mph - N/A   Overcast
6:53 AM 48.9 °F - 14.0 °F 25% 29.93 in 10.0 mi SSE 8.1 mph - N/A   Overcast
7:53 AM 48.0 °F - 16.0 °F 28% 29.95 in 10.0 mi East 8.1 mph - N/A   Overcast
8:53 AM 48.0 °F - 19.9 °F 33% 29.96 in 10.0 mi East 6.9 mph - 0.00 in   Overcast
9:53 AM 46.9 °F - 32.0 °F 56% 29.96 in 10.0 mi ESE 16.1 mph - 0.02 in Rain Light Rain
10:53 AM 48.9 °F - 39.0 °F 69% 29.95 in 10.0 mi ESE 10.4 mph - 0.00 in Rain Light Rain
11:53 AM 51.1 °F - 34.0 °F 52% 29.95 in 10.0 mi South 5.8 mph - 0.00 in   Overcast
12:53 PM 54.0 °F - 36.0 °F 51% 29.91 in 10.0 mi ESE 5.8 mph - N/A   Overcast
1:53 PM 55.9 °F - 34.0 °F 44% 29.90 in 10.0 mi SSE 16.1 mph - 0.00 in Rain Light Rain
2:53 PM 54.0 °F - 37.9 °F 55% 29.90 in 10.0 mi WSW 8.1 mph - 0.00 in Rain Light Rain
3:53 PM 53.1 °F - 39.9 °F 61% 29.86 in 10.0 mi ESE 13.8 mph - 0.01 in   Overcast
4:53 PM 54.0 °F - 39.0 °F 57% 29.83 in 10.0 mi ESE 10.4 mph - N/A   Overcast
5:53 PM 55.9 °F - 37.9 °F 51% 29.80 in 10.0 mi SE 9.2 mph - N/A   Mostly Cloudy
6:53 PM 55.0 °F - 37.0 °F 51% 29.77 in 10.0 mi SE 8.1 mph - N/A   Mostly Cloudy
7:53 PM 53.1 °F - 37.0 °F 55% 29.76 in 10.0 mi East 3.5 mph - N/A   Overcast
8:53 PM 52.0 °F - 36.0 °F 54% 29.78 in 10.0 mi WSW 11.5 mph - N/A   Mostly Cloudy
9:53 PM 52.0 °F - 37.0 °F 57% 29.76 in 10.0 mi SSE 13.8 mph 20.7 mph N/A   Mostly Cloudy
10:53 PM 51.1 °F - 37.0 °F 59% 29.72 in 10.0 mi South 16.1 mph - N/A   Mostly Cloudy
11:53 PM 50.0 °F - 37.4 °F 62% 29.77 in 10.0 mi South 15.0 mph 21.9 mph N/A   Scattered Clouds